Caldwell, ID

5:14 PM MST on November 20, 2019 (GMT -0700)
Caldwell Industrial

Weather History for KEUL - October, 2019

Change the Weather History Date:

Wednesday, October 23, 2019

  Actual Average (KBOI) Record (KBOI)
Temperature  
Mean Temperature 51 °F -  
Max Temperature 60 °F 60 °F 79 °F (1948)
Min Temperature 39 °F 37 °F 20 °F (1945)
Degree Days  
Heating Degree Days 14    
Growing Degree Days 1 (Base 50)    
Moisture  
Dew Point 31 °F    
Average Humidity 50    
Maximum Humidity 71    
Minimum Humidity 27    
Precipitation  
Precipitation 0.00 in - - ()
Sea Level Pressure  
Sea Level Pressure 30.35 in    
Wind  
Wind Speed 9 mph ()    
Max Wind Speed 15 mph    
Max Gust Speed 18 mph    
Visibility 10.0 miles    
Events      
Averages and records for this station are not official NWS values.
T = Trace of Precipitation, MM = Missing Value Source: Averaged Metar Reports

Daily Weather History Graph

Daily Weather History Graph

Search for Another Location

Airport or City:

Astronomy

Oct. 23, 2019 Rise Set
Actual Time 8:10 AM MDT 6:50 PM MDT
Civil Twilight 7:41 AM MDT 7:19 PM MDT
Nautical Twilight 7:07 AM MDT 7:53 PM MDT
Astronomical Twilight 6:34 AM MDT 8:26 PM MDT
Moon 2:20 AM MDT (10/23) 4:56 PM MDT (10/23)
Length of Visible Light 11h 38m
Length of Day
10h 39m
Waning Crescent, 26% of the Moon is Illuminated
Oct 23
Waning Crescent
Oct 27
New
Nov 4
First Quarter
Nov 12
Full
Nov 19
Last Quarter

Hourly Weather History & Observations

Time (MDT) Temp. Windchill Dew Point Humidity Pressure Visibility Wind Dir Wind Speed Gust Speed Precip Events Conditions
12:56 AM 51.1 °F - 42.1 °F 71% 30.24 in 10.0 mi West 8.1 mph - N/A   Clear
1:56 AM 48.9 °F - 37.9 °F 66% 30.25 in 10.0 mi WNW 9.2 mph - N/A   Clear
2:56 AM 52.0 °F - 32.0 °F 47% 30.25 in 10.0 mi WNW 13.8 mph - N/A   Clear
3:56 AM 48.9 °F - 32.0 °F 52% 30.26 in 10.0 mi WNW 11.5 mph - N/A   Clear
4:56 AM 43.0 °F 39.5 °F 32.0 °F 65% 30.28 in 10.0 mi WNW 5.8 mph - N/A   Clear
5:56 AM 45.0 °F 40.6 °F 32.0 °F 60% 30.29 in 10.0 mi NW 8.1 mph - N/A   Clear
6:56 AM 42.1 °F 37.1 °F 33.1 °F 70% 30.32 in 10.0 mi WSW 8.1 mph - N/A   Clear
7:56 AM 43.0 °F 37.7 °F 33.1 °F 68% 30.34 in 10.0 mi West 9.2 mph - N/A   Clear
8:56 AM 43.0 °F 36.8 °F 33.1 °F 68% 30.36 in 10.0 mi West 11.5 mph - N/A   Clear
9:56 AM 46.9 °F - 34.0 °F 61% 30.39 in 10.0 mi West 9.2 mph - N/A   Clear
10:56 AM 51.1 °F - 34.0 °F 52% 30.40 in 10.0 mi West 13.8 mph - N/A   Clear
11:56 AM 54.0 °F - 32.0 °F 43% 30.40 in 10.0 mi West 15.0 mph - N/A   Clear
12:56 PM 57.0 °F - 32.0 °F 39% 30.39 in 10.0 mi West 13.8 mph - N/A   Clear
1:56 PM 59.0 °F - 28.0 °F 31% 30.38 in 10.0 mi NW 9.2 mph 18.4 mph N/A   Clear
2:56 PM 59.0 °F - 27.0 °F 29% 30.36 in 10.0 mi WNW 12.7 mph - N/A   Clear
3:56 PM 59.0 °F - 27.0 °F 29% 30.36 in 10.0 mi West 12.7 mph - N/A   Clear
4:56 PM 60.1 °F - 26.1 °F 27% 30.36 in 10.0 mi West 13.8 mph - N/A   Clear
5:56 PM 57.9 °F - 25.0 °F 28% 30.37 in 10.0 mi NW 11.5 mph - N/A   Clear
6:56 PM 53.1 °F - 27.0 °F 37% 30.38 in 10.0 mi WNW 6.9 mph - N/A   Clear
7:56 PM 50.0 °F - 28.0 °F 43% 30.39 in 10.0 mi West 8.1 mph - N/A   Clear
8:56 PM 46.0 °F 41.9 °F 28.0 °F 50% 30.41 in 10.0 mi NNW 8.1 mph - N/A   Clear
9:56 PM 45.0 °F 43.5 °F 28.0 °F 52% 30.42 in 10.0 mi NNW 3.5 mph - N/A   Clear
10:56 PM 42.1 °F 38.4 °F 27.0 °F 55% 30.44 in 10.0 mi WSW 5.8 mph - N/A   Clear
11:56 PM 39.0 °F 35.7 °F 27.0 °F 62% 30.45 in 10.0 mi SW 4.6 mph - N/A   Clear